Location: Churchill Northern Studies Centre
(58.7378°N, 93.8201°W)
Time: 05:27:35
(UTC-05:00)

Envisat - Pass Details

Date: 07 October 2017
Orbit: 764 x 766 km, 98.2° (Epoch: 19 October)

Event Time Altitude Azimuth Distance (km) Brightness Sun altitude
Exits shadow 21:58:36 - 211° (SSW) 2,413 5.5 -26.5°
Reaches altitude 10° 21:58:57 10° 214° (SSW) 2,304 5.4 -26.5°
Maximum altitude 22:03:09 26° 270° (W) 1,488 4.9 -27.0°
Drops below altitude 10° 22:07:24 10° 326° (NNW) 2,317 6.4 -27.4°
Sets 22:10:06 0° 339° (NNW) 3,248 7.1 -27.7°
